Location: Ford County Road and Bridge Department
(37.7686°N, 99.9762°W)
Time: 04:22:44
(UTC+00:00)

Cosmos 1461 - Pass Details

Date: 18 January 2020
Orbit: 516 x 651 km, 65.0° (Epoch: 19 February)

Event Time Altitude Azimuth Distance (km) Brightness Sun altitude
Rises 00:30:17 0° 339° (NNW) 2,806 6.5 -8.8°
Reaches altitude 10° 00:32:42 10° 350° (N) 1,927 5.5 -9.2°
Maximum altitude 00:36:36 31° 53° (NE) 1,074 3.8 -10.0°
Drops below altitude 10° 00:40:36 10° 116° (ESE) 1,990 5.2 -10.7°
Sets 00:43:07 0° 127° (SE) 2,912 6.2 -11.2°
